This demonstration page uses our WeatherBlox Daily Observations layout. Learn more.

Left ArrowRight Arrow

Hourly Observations for February 27, 2017

Temp ( °F °C ) Dew Point ( °F °C ) Humidity (%) Winds ( mph kmh ) Pressure ( in mb ) Visibility ( mi km ) Precip ( " mm )
12:51 am 00:51 Clear 36 2.2 26 -3.3 67 67 E 3 6 29.91 1013 10 16 N/A
1:51 am 01:51 Clear 36 2.2 26 -3.3 67 67 SE 5 7 29.91 1013 10 16 N/A
2:51 am 02:51 Clear 34 1.1 26 -3.3 73 73 N N/A 29.91 1013 10 16 N/A
3:51 am 03:51 Clear 33 0.6 25 -3.9 72 72 N N/A 29.91 1013 10 16 N/A
4:51 am 04:51 Clear 33 0.6 25 -3.9 72 72 ESE 3 6 29.94 1014 10 16 N/A
5:51 am 05:51 Clear 30 -1.1 24 -4.4 79 79 VRB 5 7 29.96 1014 10 16 N/A
6:51 am 06:51 Sunny 30 -1.1 24 -4.4 79 79 N N/A 29.98 1015 10 16 N/A
7:51 am 07:51 Sunny 40 4.4 28 -2.2 63 63 N N/A 29.98 1015 10 16 N/A
8:51 am 08:51 Sunny 48 8.9 29 -1.7 48 48 N N/A 30.00 1016 10 16 N/A
9:51 am 09:51 Sunny 54 12.2 30 -1.1 40 40 N N/A 30.00 1016 10 16 N/A
10:51 am 10:51 Sunny 57 13.9 29 -1.7 34 34 E 6 9 29.98 1015 10 16 N/A
11:51 am 11:51 Sunny 60 15.6 29 -1.7 31 31 E 7 11 29.94 1014 10 16 N/A
12:51 pm 12:51 Sunny 63 17.2 27 -2.8 26 26 undefined N/A 29.91 1013 10 16 N/A
1:51 pm 13:51 Sunny 66 18.9 26 -3.3 22 22 VRB 5 7 29.86 1011 10 16 N/A
2:51 pm 14:51 Sunny 67 19.4 26 -3.3 21 21 N N/A 29.83 1010 10 16 N/A
3:51 pm 15:51 Sunny 66 18.9 25 -3.9 21 21 VRB 3 6 29.82 1010 10 16 N/A
4:51 pm 16:51 Mostly Sunny 65 18.3 26 -3.3 23 23 WNW 7 11 29.82 1010 10 16 N/A
5:51 pm 17:51 Cloudy 63 17.2 28 -2.2 27 27 NNW 6 9 29.84 1011 10 16 N/A
6:51 pm 18:51 Mostly Cloudy 62 16.7 32 undefined 32 32 WNW 13 20 29.85 1011 10 16 N/A
7:51 pm 19:51 Mostly Cloudy 59 15 35 1.7 41 41 WNW 5 7 29.83 1010 10 16 N/A
8:51 pm 20:51 Cloudy 59 15 35 1.7 41 41 SW 5 7 29.83 1010 10 16 N/A
9:51 pm 21:51 Mostly Cloudy 56 13.3 42 5.6 60 60 N 12 19 29.82 1010 10 16 N/A
10:51 pm 22:51 Mostly Cloudy 56 13.3 41 5 57 57 WNW 6 9 29.81 1009 10 16 N/A
11:51 pm 23:51 Mostly Clear 54 12.2 39 3.9 57 57 W 8 13 29.81 1009 10 16 N/A

Powered by AerisWeather